Regional Weather Roundup
Issued by NWS

Home | Current Version | Previous Version | Graphics & Text | Print | Product List | Glossary On
Versions: 1 2 3 4 5 6 7 8 9 10 11 12 13 14 15 16 17 18 19 20 21 22 23 24 25 26 27 28 29 30 31 32 33 34 35 36 37 38 39 40 41 42 43 44 45 46 47 48 49 50
453
ASUS45 KBOU 282307
RWRCO

WEATHER ROUNDUP FOR COLORADO
NATIONAL WEATHER SERVICE DENVER/BOULDER CO
500 PM MDT THU APR 28 2016

NOTE: "FAIR" INDICATES FEW OR NO CLOUDS BELOW 12000 FEET WITH NO
SIGNIFICANT WEATHER AND/OR OBSTRUCTIONS TO VISIBILITY.

COZ001>005-013-030-031-290000-
...NORTHWEST COLORADO...

CITY           SKY/WX    TMP DP  RH WIND       PRES   REMARKS
CRAIG          LGT RAIN  39  35  86 SW3       29.83F
HAYDEN         CLOUDY    34  30  86 W5        29.86R WCI  30
MEEKER         FAIR      43  36  76 E6        29.83R
MOUNT WERNER   NOT AVBL
STEAMBOAT SPGS CLOUDY    35  33  90 SW17G36   29.90R WCI  25
WALDEN         PTSUNNY   36  28  75 NW6       29.88R
$$

COZ006>008-011-290000-
...WEST CENTRAL VALLEYS...

CITY           SKY/WX    TMP DP  RH WIND       PRES   REMARKS
GRAND JUNCTION LGT RAIN  50  41  71 NW13      29.77R
MONTROSE       FAIR      55  30  38 CALM      29.75F
EAGLE          CLOUDY    48  36  61 W10G17    29.80R
RIFLE          LGT RAIN  50  36  58 SE6       29.78R
DELTA          NOT AVBL
NUCLA          NOT AVBL
$$

COZ017>023-064>068-290000-
...SOUTHWEST COLORADO...

CITY           SKY/WX    TMP DP  RH WIND       PRES   REMARKS
DURANGO        PTSUNNY   56  20  24 W13       29.72R
CORTEZ         CLOUDY    47  36  65 N7        29.78R
PAGOSA SPRINGS FAIR      53  15  22 SE5G16    29.79R
TELLURIDE      PTSUNNY   39  26  59 S15G29    29.87R
WOLF CREEK PAS NOT AVBL
$$

COZ009-010-012-014-032>034-037-058>063-290000-
...CENTRAL COLORADO...

CITY           SKY/WX    TMP DP  RH WIND       PRES   REMARKS
ASPEN          PTSUNNY   47  32  56 NW13      29.78R
BUENA VISTA    CLOUDY    34  29  83 S17       29.92R WCI  24
COPPER MTN     NOT AVBL
BERTHOUD PASS  HAZE      19  10  68 SE10G21   29.96R VSB<1/4 WCI   8
COTTONWOOD PAS CLOUDY    34  32  93 E7        29.94R WCI  28
GUNNISON       FAIR      52  12  20 S32G43    29.80R
KREMMLING      FAIR      46  32  57 W7        29.84S
LEADVILLE      FAIR      35  28  75 MISG      29.85S
MONARCH PASS   CLOUDY    27  19  74 SW17G29   30.05R WCI  14
SALIDA         PTSUNNY   38  30  72 SE17G28   29.99R
SUNLIGHT       CLOUDY    32  32 100 CALM      29.91S FOG
WILKERSON PASS FOG       28  27  93 S9G17     29.99R VSB 1/2 WCI  20
$$

COZ069>075-290000-
...SAN LUIS VALLEY/SANGRE DE CRISTO MOUNTAINS...

CITY           SKY/WX    TMP DP  RH WIND       PRES   REMARKS
ALAMOSA        CLOUDY    48  30  49 E15G24    29.80S
LA VETA PASS   SNOW      27  27 100 MISG      29.97R VSB 1/2
SAGUACHE       PTSUNNY   52  21  30 S15       29.82S
$$

COZ035-036-038>040-290000-
...NORTHERN COLORADO FRONT RANGE...

CITY           SKY/WX    TMP DP  RH WIND       PRES   REMARKS
DENVER INTL AP CLOUDY    38  31  76 E12       29.97S
DMNS CITY PARK   N/A     39  33  78 MISG      29.97S
AURORA         CLOUDY    37  36  93 E13       29.97S
FRONT RANGE AP CLOUDY    37  32  81 E9G20     29.99R
ERIE MUNI ARPT CLOUDY    39  34  81 E6        29.98S
BOULDER MUN AP CLOUDY    37  36  93 E5        29.97S
CENTENNIAL     DRIZZLE   39  32  76 S3        29.96R
BROOMFIELD     CLOUDY    37  36  93 E6        29.98S
FORT COLLINS   CLOUDY    39  34  81 SE10      29.99S
LONGMONT       CLOUDY    42  35  75 SE5       30.00S HAZE
$$

COZ041-046-047-076>085-087-088-290000-
...PIKES PEAK/PALMER DIVIDE AND SOUTHERN FOOTHILLS...

CITY           SKY/WX    TMP DP  RH WIND       PRES   REMARKS
COLO. SPRINGS  CLOUDY    37  31  78 SE6       29.98R
A. F. ACADEMY  CLOUDY    36  32  87 SE14      29.95S
SCHRIEVER AFB  NOT AVBL
ELLICOTT       NOT AVBL
FALCON         CLOUDY    36  32  87 S8        29.98R
FORT CARSON    CLOUDY    38  33  83 MISG      29.96R
LIMON          CLOUDY    40  33  76 E10       29.99R
MONUMENT HILL  CLOUDY    34  30  86 SE13      29.97R WCI  25
TRINIDAD       PTSUNNY   50  35  56 N16G28    29.86R
$$

COZ042>045-048>051-090-091-290000-
...NORTHEAST COLORADO...

CITY           SKY/WX    TMP DP  RH WIND       PRES   REMARKS
GREELEY ARPT   PTSUNNY   41  34  75 SE10      30.00S
AKRON          CLOUDY    39  33  79 CALM      30.02R
BURLINGTON     CLOUDY    50  33  52 E10       29.99S
WRAY           NOT AVBL
STERLING       CLOUDY    41  34  75 NE3       30.02R
HOLYOKE        NOT AVBL
FORT MORGAN    CLOUDY    39  34  80 SE3       30.02S
$$

COZ086-089-092>099-290000-
...SOUTHEAST COLORADO...

CITY           SKY/WX    TMP DP  RH WIND       PRES   REMARKS
PUEBLO         CLOUDY    50  29  44 VRB3      29.95R
LA JUNTA       PTSUNNY   53  31  42 E13G23    29.93F
LAMAR          PTSUNNY   56  32  40 E13G20    29.94F
SPRINGFIELD      N/A     53  35  50 E15G23    29.90F
$$




USA.gov is the U.S. government's official web portal to all federal, state and local government web resources and services.